[[{"header":{"parameterUnit":"m.s-1","parameterCategory":2,"la1":30.2991,"la2":30.254,"lo1":-89.0895,"lo2":-89.0444,"dy":0.0017,"dx":0.0017,"nx":28,"ny":28,"refTime":"2024-05-23T21:00:00:Z","depth":"0","parameterNumber":2,"parameterNumberName":"U-component_of_CURRENTS"},"data":[0,0,0,0,0,0,0,0,0,0,0,0,0,0,0,0,0,0,0,0,0,0,0,0,0,0,0,0,0,0,0,0,0,0,0,0,0,0,0,0,0,0,0,0,0,0,0,0,0,0,0,0,0,0,0,0,0,0,0.1532,0.1533,0,0.1568,0.1568,0.1568,0.1566,0.1566,0.1565,0.1565,0.1564,0.1564,0.1564,0,0,0,0,0,0,0,0,0,0,0,0,0,0.1452,0.1454,0.1532,0.1533,0.1533,0.1567,0.1568,0.1568,0.1566,0.1566,0.1565,0.1565,0.1564,0.1564,0.1564,0,0,0,0,0,0,0,0,0,0,0,0,0,0.1486,0.1454,0.1532,0.1537,0.1538,0.1567,0.1568,0.1568,0.1566,0.1566,0.1565,0.1564,0.1564,0.1564,0.1565,0.1579,0,0,0.1566,0.1566,0,0,0,0,0,0,0,0,0.1484,0.1489,0.1536,0.1537,0.1538,0.1563,0.1539,0.1571,0.1566,0.1554,0.1565,0.1564,0.1561,0.1562,0.1569,0.1579,0.1579,0.1566,0.1566,0.1567,0.1567,0,0,0,0,0,0,0,0.1482,0.1487,0.1545,0.1537,0.1538,0.1535,0.1539,0.1545,0.1559,0.1555,0.1555,0.1562,0.1562,0.1568,0.1568,0.1579,0.1566,0.1567,0.1567,0.1567,0.1588,0.1588,0,0,0,0,0,0,0.1482,0.1485,0.1544,0.1546,0.1511,0.1537,0.1541,0.1554,0.156,0.1561,0.1562,0.1562,0.1568,0.1568,0.1568,0.1585,0.1567,0.1567,0.1567,0.1587,0.1588,0.1588,0,0,0,0,0,0,0.148,0.1487,0.1542,0.1517,0.1524,0.1539,0.1554,0.1556,0.1566,0.1566,0.1565,0.1571,0.1567,0.1568,0.1578,0.1585,0.1567,0.1568,0.1587,0.1587,0.1588,0.1619,0,0,0,0,0,0,0.1478,0.1486,0.1497,0.1517,0.1525,0.1567,0.1555,0.1557,0.1571,0.1571,0.1573,0.1573,0.1567,0.1578,0.1579,0.1585,0.1568,0.1587,0.1587,0.1588,0.1618,0.162,0.1623,0,0,0,0,0,0.1475,0.1496,0.1498,0.1505,0.154,0.1568,0.1572,0.1579,0.1572,0.1584,0.1582,0.1573,0.1581,0.1579,0.158,0.1587,0.1587,0.1587,0.1588,0.1616,0.162,0.1623,0,0,0,0,0,0,0.147,0.1499,0.15,0.153,0.1549,0.1568,0.1584,0.1584,0.1593,0.1591,0.1583,0.1583,0.1594,0.1587,0.1584,0.1592,0.158,0.158,0.1601,0.1604,0.1607,0.164,0.1569,0,0,0,0,0,0.1473,0.1497,0.1519,0.1544,0.1555,0.1569,0.1581,0.1586,0.1597,0.16,0.16,0.1596,0.1598,0.1598,0.16,0.161,0.1692,0.1612,0.1614,0.1616,0.1643,0.1784,0.1804,0.159,0.159,0.159,0,0,0.1478,0.1498,0.1511,0.1544,0.156,0.1577,0.1575,0.16,0.1606,0.1599,0.1608,0.161,0.1603,0.1612,0.1615,0.1607,0.1723,0.1617,0.1619,0.1646,0.1787,0.1809,0.1828,0.159,0.159,0.159,0,0,0.1502,0.1519,0.1544,0.156,0.1587,0.1593,0.1601,0.1621,0.1622,0.1637,0.1628,0.1641,0.1639,0.164,0.1638,0.1658,0.1735,0.1648,0.1687,0.1823,0.1844,0.1862,0.2015,0.2047,0.1646,0.1646,0.1646,0,0.1503,0.1537,0.1556,0.1579,0.159,0.1599,0.1618,0.1623,0.1641,0.1659,0.1642,0.1683,0.1655,0.1692,0.1681,0.1666,0.1775,0.1675,0.1832,0.1852,0.1871,0.2023,0.2058,0.1647,0.1647,0.1647,0.1647,0,0.1546,0.1564,0.1582,0.1608,0.1622,0.1644,0.165,0.1665,0.1665,0.1684,0.173,0.1723,0.1766,0.1733,0.1704,0.1806,0.1854,0.1827,0.1835,0.1896,0.205,0.2087,0.165,0.1649,0.1649,0.1648,0,0,0.1564,0.1602,0.1606,0.1618,0.1637,0.1657,0.1667,0.1698,0.1749,0.1753,0.1844,0.1802,0.1845,0.1847,0.1833,0.1908,0.2102,0.1923,0.1929,0.2094,0.2456,0.2452,0.2492,0.2127,0.2133,0.2138,0.2519,0,0.1586,0.1627,0.1639,0.1667,0.1683,0.1691,0.1711,0.174,0.1783,0.1877,0.189,0.1972,0.1877,0.1935,0.1993,0.2087,0.2197,0.2004,0.2356,0.2367,0.2372,0.2532,0.246,0.2791,0.2555,0.2561,0.2565,0,0.162,0.164,0.1672,0.1702,0.1714,0.1738,0.1805,0.183,0.1939,0.1992,0.2086,0.2141,0.2246,0.2173,0.2396,0.2295,0.2387,0.2445,0.2462,0.2476,0.243,0.2686,0.2866,0.2754,0.2622,0.2617,0.2613,0,0.1623,0.1661,0.1686,0.1696,0.1735,0.1763,0.1793,0.1877,0.194,0.2118,0.2238,0.2358,0.2486,0.2599,0.2679,0.2593,0.296,0.2862,0.2954,0.2956,0.2972,0.2964,0.3101,0.3066,0.3065,0.3064,0.3063,0,0.1641,0.1656,0.1702,0.1715,0.1759,0.1795,0.1884,0.1938,0.2097,0.2241,0.2328,0.2501,0.2608,0.2797,0.2831,0.3034,0.3104,0.3031,0.3075,0.2977,0.2966,0.2925,0.2845,0.3078,0.3075,0.3073,0.307,0,0.1651,0.1662,0.1696,0.1749,0.176,0.1808,0.1912,0.2039,0.2157,0.2377,0.2462,0.2694,0.2959,0.3059,0.3297,0.3267,0.3347,0.3468,0.3349,0.3369,0.3285,0.3209,0.3309,0.3215,0.3667,0.3669,0.3671,0,0.1674,0.1697,0.1725,0.177,0.1802,0.1869,0.1962,0.2056,0.2213,0.2492,0.2651,0.2954,0.3157,0.35,0.3564,0.3723,0.3522,0.3712,0.3489,0.3339,0.3289,0.3076,0.297,0.3549,0.3549,0.355,0.3551,0,0.175,0.1755,0.18,0.186,0.1946,0.2001,0.214,0.2226,0.241,0.258,0.2857,0.3028,0.3395,0.3538,0.3739,0.3791,0.3523,0.3731,0.3628,0.3274,0.3007,0.2916,0.324,0.3557,0.3557,0.3556,0.3556,0.3556,0.1849,0.1882,0.1948,0.1997,0.2072,0.2143,0.2176,0.2355,0.2499,0.2728,0.2938,0.3145,0.3397,0.3673,0.3717,0.372,0.362,0.3598,0.3554,0.3377,0.3162,0.3501,0.38,0.3801,0.3802,0.3802,0.3803,0,0.1979,0.2012,0.2096,0.2128,0.2202,0.2204,0.2324,0.236,0.2484,0.2719,0.2905,0.3154,0.333,0.3481,0.3618,0.3534,0.3322,0.3443,0.3122,0.305,0.3448,0.3311,0.3451,0.3451,0.3451,0.3452,0.3452,0.3452,0.207,0.2149,0.2149,0.2234,0.226,0.2294,0.2316,0.2356,0.2457,0.2608,0.2739,0.2919,0.3176,0.3391,0.3394,0.3333,0.3046,0.2963,0.2888,0.315,0.3157,0.3164,0.3014,0.3091,0.309,0.2363,0.2358,0.2354]},{"header":{"parameterUnit":"m.s-1","parameterCategory":2,"la1":30.2991,"la2":30.254,"lo1":-89.0895,"lo2":-89.0444,"dy":0.0017,"dx":0.0017,"nx":28,"ny":28,"refTime":"2024-05-23T21:00:00:Z","depth":"0","parameterNumber":3,"parameterNumberName":"V-component_of_CURRENTS"},"data":[0,0,0,0,0,0,0,0,0,0,0,0,0,0,0,0,0,0,0,0,0,0,0,0,0,0,0,0,0,0,0,0,0,0,0,0,0,0,0,0,0,0,0,0,0,0,0,0,0,0,0,0,0,0,0,0,0,0,-0.0043,-0.0044,0,-0.0121,-0.0121,-0.0122,-0.0145,-0.0145,-0.0144,-0.0144,-0.0232,-0.0235,-0.0238,0,0,0,0,0,0,0,0,0,0,0,0,0,0.0053,0.0052,-0.0043,-0.0044,-0.0045,-0.012,-0.0121,-0.0123,-0.0145,-0.0145,-0.0144,-0.0144,-0.0231,-0.0235,-0.0238,0,0,0,0,0,0,0,0,0,0,0,0,0,-0.0003,0.0051,-0.0043,-0.0065,-0.0067,-0.012,-0.0122,-0.0123,-0.0145,-0.0145,-0.0144,-0.0143,-0.023,-0.0234,-0.0238,-0.0278,0,0,-0.0251,-0.0253,0,0,0,0,0,0,0,0,-0.0,-0.0007,-0.006,-0.0063,-0.0066,-0.0122,-0.012,-0.0175,-0.0145,-0.0116,-0.0144,-0.0143,-0.0197,-0.0203,-0.022,-0.0282,-0.0286,-0.0252,-0.0254,-0.0256,-0.0257,0,0,0,0,0,0,0,0.0004,-0.0004,-0.0074,-0.0061,-0.0065,-0.0082,-0.0089,-0.0131,-0.016,-0.0119,-0.012,-0.0129,-0.0198,-0.0216,-0.0222,-0.0287,-0.0251,-0.0255,-0.0258,-0.0259,-0.0385,-0.0385,0,0,0,0,0,0,0.0015,-0.0,-0.0072,-0.0076,-0.003,-0.0084,-0.0092,-0.0105,-0.0159,-0.0167,-0.0129,-0.0129,-0.0209,-0.0218,-0.0226,-0.027,-0.0256,-0.026,-0.0262,-0.0384,-0.0385,-0.0386,0,0,0,0,0,0,0.0017,0.0009,-0.0068,-0.0039,-0.005,-0.0086,-0.0101,-0.0107,-0.0125,-0.0167,-0.0174,-0.014,-0.0209,-0.022,-0.0268,-0.0274,-0.0262,-0.0265,-0.0383,-0.0384,-0.0385,-0.0363,0,0,0,0,0,0,0.002,0.001,0.0002,-0.0039,-0.0051,-0.0102,-0.0102,-0.0109,-0.0131,-0.0132,-0.0179,-0.0187,-0.0209,-0.0262,-0.0272,-0.0279,-0.0269,-0.0382,-0.0383,-0.0385,-0.0363,-0.0363,-0.0364,0,0,0,0,0,0.0024,0.0005,0.0002,-0.0007,-0.0061,-0.0103,-0.0111,-0.0134,-0.0132,-0.0146,-0.0178,-0.0185,-0.0279,-0.0267,-0.0279,-0.0287,-0.0381,-0.0383,-0.0385,-0.0362,-0.0363,-0.0364,0,0,0,0,0,0,0.0038,-0.0,-0.0004,-0.0035,-0.0064,-0.0106,-0.0125,-0.0136,-0.0172,-0.0173,-0.0204,-0.0215,-0.0259,-0.0281,-0.0266,-0.0328,-0.0328,-0.0333,-0.0307,-0.0308,-0.0309,-0.0242,-0.0272,0,0,0,0,0,0.0039,0.0016,-0.0019,-0.0043,-0.0057,-0.0089,-0.0108,-0.0123,-0.0159,-0.0174,-0.0206,-0.0241,-0.0278,-0.0298,-0.0337,-0.0376,-0.0339,-0.0387,-0.0388,-0.0388,-0.0343,-0.0295,-0.0285,-0.0392,-0.0392,-0.0392,0,0,0.0037,0.0014,-0.0,-0.0041,-0.0066,-0.009,-0.0099,-0.0131,-0.0147,-0.0179,-0.0215,-0.025,-0.029,-0.0331,-0.0352,-0.0349,-0.0345,-0.039,-0.039,-0.0344,-0.0295,-0.0284,-0.0274,-0.0393,-0.0393,-0.0393,0,0,0.0023,0.0002,-0.0018,-0.0042,-0.0077,-0.0097,-0.0104,-0.0145,-0.0158,-0.02,-0.0222,-0.0246,-0.0319,-0.0331,-0.035,-0.0376,-0.0353,-0.0406,-0.0351,-0.0307,-0.0296,-0.0286,-0.0244,-0.023,-0.0402,-0.0402,-0.0402,0,0.0025,-0.0,-0.0031,-0.0053,-0.0063,-0.0097,-0.0109,-0.0138,-0.0189,-0.0169,-0.0208,-0.0244,-0.0307,-0.03,-0.0328,-0.0372,-0.034,-0.0346,-0.0302,-0.0291,-0.0281,-0.024,-0.0225,-0.0402,-0.0402,-0.0402,-0.0402,0,0.0,-0.0017,-0.0032,-0.0063,-0.0082,-0.0103,-0.0133,-0.0144,-0.016,-0.0161,-0.0156,-0.0222,-0.0211,-0.027,-0.0321,-0.0283,-0.0283,-0.0309,-0.0288,-0.0268,-0.0228,-0.0212,-0.04,-0.0401,-0.0401,-0.0401,0,0,0.0004,-0.0038,-0.0041,-0.0026,-0.0081,-0.0081,-0.0106,-0.0097,-0.0027,-0.0103,-0.001,-0.0131,-0.0108,-0.0126,-0.0177,-0.0175,-0.013,-0.0217,-0.0215,-0.0151,-0.0018,-0.0057,-0.0044,-0.0144,-0.0141,-0.0138,-0.0024,0,0.0002,-0.0011,-0.0042,-0.0037,-0.0034,-0.0054,-0.0041,-0.0031,-0.0009,0.0069,0.0026,0.008,-0.0069,-0.0028,-0.006,-0.0095,-0.0084,-0.0156,-0.0065,-0.0061,-0.0079,-0.0026,-0.0055,0.0042,-0.0009,-0.0006,-0.0004,0,-0.0005,-0.0002,0.0003,0.0044,0.005,0.0059,0.0152,0.016,0.024,0.0277,0.0319,0.0317,0.0309,0.0199,0.016,0.0124,0.0065,0.0017,0.0021,0.0003,-0.007,0.0015,0.0072,-0.0149,0.002,0.0018,0.0016,0,0.0053,0.0042,0.0067,0.0064,0.0088,0.0133,0.0169,0.0248,0.0346,0.0459,0.0588,0.0551,0.0617,0.0506,0.0352,0.0286,0.0333,0.024,0.0159,0.0156,0.0163,0.0154,0.0046,0.0259,0.0259,0.0258,0.0258,0,0.0078,0.0109,0.0116,0.0137,0.0244,0.0233,0.0393,0.0442,0.0596,0.0792,0.0735,0.0902,0.0704,0.0688,0.0487,0.0379,0.0445,0.0212,0.0199,0.0162,0.0153,-0.0015,-0.0114,0.0262,0.0262,0.0261,0.026,0,0.0164,0.0129,0.0195,0.0245,0.0273,0.0376,0.0543,0.0716,0.081,0.108,0.1143,0.1212,0.1188,0.0971,0.0837,0.0614,0.037,0.0421,0.0381,0.036,0.0034,-0.0061,-0.0078,-0.0156,0.0365,0.0365,0.0365,0,0.0219,0.0251,0.0313,0.0396,0.0436,0.0573,0.0723,0.0824,0.1027,0.1288,0.1468,0.1528,0.1593,0.1352,0.0987,0.0681,0.0452,0.0446,0.0293,0.005,-0.0065,-0.0135,-0.0205,0.0307,0.0306,0.0306,0.0306,0,0.0391,0.0402,0.048,0.0616,0.0762,0.0919,0.1126,0.1287,0.1472,0.1665,0.1936,0.1997,0.1811,0.149,0.105,0.0806,0.0295,0.0428,0.0205,-0.0079,-0.0179,-0.0273,0.0186,0.0302,0.0302,0.0303,0.0303,0.0303,0.058,0.0675,0.077,0.0898,0.106,0.1269,0.141,0.1636,0.189,0.217,0.2243,0.2317,0.1858,0.126,0.0943,0.0283,0.032,0.0028,-0.0049,-0.0084,-0.0217,0.0228,0.0296,0.0296,0.0296,0.0296,0.0297,0,0.0828,0.0905,0.1059,0.1205,0.139,0.1413,0.17,0.1837,0.2093,0.2324,0.2487,0.2244,0.1682,0.1091,0.025,-0.0161,-0.0305,-0.0396,-0.0524,-0.0562,-0.014,-0.021,-0.0282,-0.0282,-0.0282,-0.0281,-0.0281,-0.0281,0.0986,0.115,0.1178,0.1459,0.1564,0.1798,0.1933,0.212,0.2274,0.2445,0.2428,0.2423,0.1904,0.0511,-0.0457,-0.0666,-0.0923,-0.0956,-0.1071,-0.0851,-0.0819,-0.0789,-0.0883,-0.1096,-0.1097,-0.1481,-0.1485,-0.1489]}],[{"header":{"parameterUnit":"m.s-1","parameterCategory":2,"la1":30.2991,"la2":30.254,"lo1":-89.0895,"lo2":-89.0444,"dy":0.0017,"dx":0.0017,"nx":28,"ny":28,"refTime":"2024-05-23T21:00:00:Z","depth":"2","parameterNumber":2,"parameterNumberName":"U-component_of_CURRENTS"},"data":[0,0,0,0,0,0,0,0,0,0,0,0,0,0,0,0,0,0,0,0,0,0,0,0,0,0,0,0,0,0,0,0,0,0,0,0,0,0,0,0,0,0,0,0,0,0,0,0,0,0,0,0,0,0,0,0,0,0,0.1463,0.1463,0,0.1501,0.1501,0.1502,0.1503,0.1502,0.1502,0.1502,0.1504,0.1504,0.1505,0,0,0,0,0,0,0,0,0,0,0,0,0,0.1378,0.138,0.1463,0.1463,0.1464,0.1501,0.1501,0.1502,0.1503,0.1502,0.1502,0.1502,0.1504,0.1504,0.1505,0,0,0,0,0,0,0,0,0,0,0,0,0,0.1414,0.138,0.1463,0.147,0.1471,0.1501,0.1501,0.1502,0.1503,0.1502,0.1502,0.1501,0.1504,0.1504,0.1505,0.1517,0,0,0.1507,0.1507,0,0,0,0,0,0,0,0,0.1412,0.1417,0.1468,0.147,0.1471,0.1498,0.1473,0.1506,0.1503,0.1489,0.1502,0.1501,0.15,0.1501,0.1507,0.1517,0.1518,0.1507,0.1507,0.1507,0.1507,0,0,0,0,0,0,0,0.1409,0.1415,0.1476,0.1469,0.1471,0.1468,0.1472,0.1479,0.1495,0.149,0.1491,0.1498,0.1501,0.1507,0.1507,0.1518,0.1507,0.1507,0.1507,0.1508,0.1533,0.1533,0,0,0,0,0,0,0.141,0.1413,0.1475,0.1477,0.1442,0.147,0.1475,0.1488,0.1495,0.1497,0.1498,0.1498,0.1506,0.1507,0.1507,0.1527,0.1507,0.1508,0.1508,0.1532,0.1533,0.1533,0,0,0,0,0,0,0.1408,0.1415,0.1473,0.1447,0.1454,0.1472,0.1487,0.149,0.1502,0.1502,0.1503,0.1509,0.1506,0.1507,0.1519,0.1527,0.1508,0.1508,0.1532,0.1533,0.1533,0.1564,0,0,0,0,0,0,0.1405,0.1414,0.1426,0.1447,0.1456,0.1498,0.1488,0.1491,0.1507,0.1507,0.1512,0.1511,0.1505,0.1518,0.1519,0.1527,0.1509,0.1532,0.1532,0.1533,0.1562,0.1565,0.1568,0,0,0,0,0,0.1402,0.1424,0.1426,0.1434,0.1471,0.1499,0.1504,0.1513,0.1508,0.152,0.152,0.1511,0.1522,0.1519,0.152,0.1529,0.1531,0.1532,0.1533,0.1561,0.1565,0.1568,0,0,0,0,0,0,0.1396,0.1427,0.143,0.146,0.148,0.15,0.1515,0.1519,0.1529,0.1528,0.1521,0.1522,0.1534,0.1528,0.1524,0.1537,0.1523,0.1524,0.1544,0.1548,0.155,0.1578,0.1509,0,0,0,0,0,0.14,0.1423,0.1447,0.1472,0.1483,0.1499,0.1512,0.152,0.1532,0.1536,0.1537,0.1536,0.1538,0.1541,0.1543,0.1555,0.1613,0.1558,0.1561,0.1564,0.1587,0.1701,0.1718,0.1536,0.1536,0.1536,0,0,0.1403,0.1425,0.1437,0.1472,0.1488,0.1507,0.1506,0.1532,0.154,0.1535,0.1546,0.155,0.1544,0.1555,0.1559,0.1552,0.1644,0.1565,0.1567,0.1589,0.1704,0.1722,0.1738,0.1536,0.1536,0.1536,0,0,0.1418,0.1443,0.1461,0.1483,0.1513,0.1522,0.1531,0.1554,0.1556,0.1574,0.1566,0.1579,0.1583,0.1583,0.1581,0.1602,0.1657,0.1597,0.1634,0.1744,0.1761,0.1777,0.1873,0.1897,0.1596,0.1596,0.1596,0,0.1418,0.1452,0.1471,0.1496,0.1515,0.1528,0.1548,0.1555,0.1577,0.1593,0.1581,0.1623,0.1597,0.1631,0.1623,0.161,0.1691,0.1621,0.1753,0.1769,0.1785,0.188,0.1906,0.1598,0.1598,0.1598,0.1597,0,0.1441,0.1474,0.1492,0.1523,0.154,0.157,0.1579,0.1596,0.1602,0.1621,0.1666,0.166,0.1703,0.1673,0.1647,0.1733,0.176,0.1748,0.1752,0.1806,0.1901,0.1928,0.16,0.16,0.1599,0.1599,0,0,0.144,0.1493,0.1505,0.1528,0.1562,0.1583,0.1596,0.1629,0.1679,0.1687,0.1774,0.1734,0.1777,0.1779,0.1767,0.1824,0.1967,0.1833,0.1838,0.1943,0.2236,0.2153,0.2175,0.2002,0.2007,0.2011,0.2258,0,0.1457,0.1505,0.1524,0.1571,0.1599,0.1618,0.1639,0.167,0.1715,0.1806,0.1816,0.1895,0.1807,0.1863,0.1905,0.1963,0.2041,0.1902,0.2155,0.2163,0.2096,0.2204,0.1983,0.2177,0.2284,0.2289,0.2292,0,0.1484,0.1513,0.1558,0.1614,0.1628,0.1657,0.1731,0.1759,0.1864,0.1912,0.2003,0.2056,0.2133,0.2075,0.2219,0.2151,0.2205,0.2233,0.2244,0.218,0.2131,0.214,0.2223,0.2338,0.2334,0.2331,0.2328,0,0.149,0.1548,0.1585,0.1605,0.1659,0.1688,0.1721,0.1804,0.1863,0.2031,0.2141,0.2237,0.2342,0.2413,0.2438,0.2379,0.2623,0.2553,0.2534,0.2529,0.2395,0.2369,0.2702,0.2702,0.2701,0.2701,0.27,0,0.1522,0.1554,0.1602,0.1627,0.1675,0.1719,0.1811,0.1859,0.2009,0.2132,0.2226,0.2368,0.2443,0.2572,0.2564,0.2639,0.2739,0.2584,0.2604,0.2394,0.2367,0.2534,0.2512,0.271,0.2708,0.2706,0.2704,0,0.1544,0.1567,0.1612,0.167,0.1683,0.1732,0.1837,0.1951,0.2067,0.2257,0.2334,0.2528,0.2677,0.2729,0.2872,0.2814,0.2877,0.2881,0.2616,0.2598,0.2683,0.2658,0.2911,0.291,0.291,0.2909,0.2909,0,0.1565,0.1599,0.1637,0.1682,0.1716,0.179,0.1873,0.1964,0.2097,0.2338,0.2462,0.2673,0.2785,0.2951,0.2899,0.2924,0.2943,0.2753,0.2562,0.2718,0.2714,0.2689,0.2666,0.2409,0.2405,0.2402,0.2399,0,0.162,0.1634,0.1672,0.1743,0.1822,0.1869,0.1991,0.2063,0.2222,0.2348,0.2531,0.2636,0.2816,0.2748,0.2796,0.2753,0.2713,0.2679,0.2992,0.2358,0.2257,0.2247,0.224,0.2367,0.237,0.2372,0.2374,0.2375,0.1678,0.1698,0.1756,0.1798,0.1886,0.1921,0.1914,0.2051,0.2127,0.223,0.2423,0.2476,0.2562,0.2482,0.2454,0.2428,0.2564,0.2445,0.2453,0.2465,0.233,0.223,0.2311,0.2314,0.2316,0.2319,0.232,0,0.1706,0.1741,0.1818,0.182,0.1853,0.1901,0.1978,0.1944,0.1941,0.2083,0.2119,0.1988,0.2009,0.2121,0.2039,0.2053,0.1984,0.1981,0.1882,0.1916,0.1945,0.1779,0.1618,0.1616,0.1614,0.1612,0,0,0.174,0.1755,0.1733,0.1729,0.1761,0.1732,0.1713,0.1677,0.1723,0.1653,0.1657,0.1782,0.201,0.1739,0.1742,0.1693,0.1771,0.1619,0.2182,0.2095,0.2121,0.2217,0.2001,0,0,0,0,0]},{"header":{"parameterUnit":"m.s-1","parameterCategory":2,"la1":30.2991,"la2":30.254,"lo1":-89.0895,"lo2":-89.0444,"dy":0.0017,"dx":0.0017,"nx":28,"ny":28,"refTime":"2024-05-23T21:00:00:Z","depth":"2","parameterNumber":3,"parameterNumberName":"V-component_of_CURRENTS"},"data":[0,0,0,0,0,0,0,0,0,0,0,0,0,0,0,0,0,0,0,0,0,0,0,0,0,0,0,0,0,0,0,0,0,0,0,0,0,0,0,0,0,0,0,0,0,0,0,0,0,0,0,0,0,0,0,0,0,0,-0.0186,-0.0187,0,-0.0257,-0.0258,-0.0259,-0.028,-0.0279,-0.0279,-0.0278,-0.0361,-0.0364,-0.0367,0,0,0,0,0,0,0,0,0,0,0,0,0,-0.0106,-0.0108,-0.0186,-0.0187,-0.0188,-0.0257,-0.0258,-0.0259,-0.028,-0.0279,-0.0279,-0.0278,-0.0361,-0.0364,-0.0367,0,0,0,0,0,0,0,0,0,0,0,0,0,-0.0156,-0.0108,-0.0186,-0.0206,-0.0208,-0.0257,-0.0258,-0.0259,-0.028,-0.0279,-0.0278,-0.0278,-0.036,-0.0363,-0.0367,-0.0405,0,0,-0.0379,-0.0381,0,0,0,0,0,0,0,0,-0.0153,-0.0159,-0.0202,-0.0204,-0.0207,-0.0258,-0.0261,-0.0309,-0.028,-0.0253,-0.0278,-0.0277,-0.0328,-0.0335,-0.035,-0.0409,-0.0413,-0.038,-0.0382,-0.0384,-0.0385,0,0,0,0,0,0,0,-0.015,-0.0156,-0.0215,-0.0203,-0.0206,-0.0224,-0.023,-0.027,-0.0294,-0.0256,-0.0257,-0.0264,-0.033,-0.0346,-0.0352,-0.0414,-0.038,-0.0383,-0.0386,-0.0387,-0.0502,-0.0503,0,0,0,0,0,0,-0.0139,-0.0153,-0.0213,-0.0217,-0.0177,-0.0226,-0.0233,-0.0243,-0.0294,-0.0301,-0.0265,-0.0265,-0.034,-0.0348,-0.0355,-0.0394,-0.0384,-0.0388,-0.039,-0.0501,-0.0502,-0.0503,0,0,0,0,0,0,-0.0137,-0.0143,-0.021,-0.0186,-0.0195,-0.0228,-0.0239,-0.0245,-0.026,-0.03,-0.0307,-0.0273,-0.034,-0.035,-0.0395,-0.0397,-0.0389,-0.0393,-0.0501,-0.0502,-0.0503,-0.0476,0,0,0,0,0,0,-0.0134,-0.0142,-0.0148,-0.0185,-0.0196,-0.0241,-0.024,-0.0247,-0.0265,-0.0266,-0.0311,-0.0318,-0.034,-0.0389,-0.0399,-0.0402,-0.0396,-0.05,-0.0501,-0.0502,-0.0476,-0.0476,-0.0476,0,0,0,0,0,-0.0131,-0.0146,-0.0148,-0.0155,-0.0202,-0.0241,-0.0249,-0.027,-0.0266,-0.0279,-0.0308,-0.0316,-0.0404,-0.0393,-0.0405,-0.0409,-0.0499,-0.0501,-0.0502,-0.0476,-0.0476,-0.0476,0,0,0,0,0,0,-0.0116,-0.015,-0.0153,-0.0177,-0.0205,-0.0244,-0.0261,-0.027,-0.0304,-0.0304,-0.0334,-0.0344,-0.0383,-0.0405,-0.0392,-0.0447,-0.045,-0.0454,-0.0426,-0.0426,-0.0426,-0.0372,-0.0399,0,0,0,0,0,-0.0114,-0.0133,-0.0165,-0.0185,-0.0197,-0.0226,-0.0244,-0.0258,-0.0291,-0.0304,-0.0334,-0.0367,-0.04,-0.0419,-0.0456,-0.0491,-0.0482,-0.0499,-0.0499,-0.0499,-0.0463,-0.0447,-0.0441,-0.0508,-0.0508,-0.0508,0,0,-0.0114,-0.0135,-0.0146,-0.0182,-0.0205,-0.0226,-0.0236,-0.0265,-0.0277,-0.031,-0.034,-0.0373,-0.0412,-0.0448,-0.0467,-0.0465,-0.0486,-0.0501,-0.05,-0.0464,-0.0448,-0.0441,-0.0435,-0.0509,-0.0509,-0.0509,0,0,-0.0128,-0.0141,-0.0162,-0.0181,-0.0213,-0.0231,-0.0236,-0.0275,-0.0285,-0.0323,-0.0344,-0.0368,-0.0433,-0.0446,-0.0464,-0.0486,-0.0489,-0.051,-0.0462,-0.0448,-0.0441,-0.0435,-0.045,-0.0445,-0.0506,-0.0506,-0.0506,0,-0.0125,-0.0146,-0.0175,-0.0194,-0.0198,-0.0229,-0.0238,-0.0265,-0.0311,-0.0297,-0.0329,-0.037,-0.0422,-0.0423,-0.0443,-0.0481,-0.0481,-0.0459,-0.0444,-0.0437,-0.0431,-0.0448,-0.0443,-0.0505,-0.0505,-0.0505,-0.0505,0,-0.0154,-0.0161,-0.0174,-0.02,-0.0215,-0.0229,-0.0256,-0.0267,-0.028,-0.0284,-0.0288,-0.0347,-0.0345,-0.0392,-0.0433,-0.0415,-0.0435,-0.0447,-0.0434,-0.0422,-0.0442,-0.0437,-0.0503,-0.0503,-0.0504,-0.0504,0,0,-0.0157,-0.0185,-0.0186,-0.0167,-0.0207,-0.0208,-0.0229,-0.0224,-0.0173,-0.0238,-0.0169,-0.0269,-0.0256,-0.0274,-0.0318,-0.0332,-0.0334,-0.0373,-0.0373,-0.037,-0.0318,-0.039,-0.0392,-0.0339,-0.0338,-0.0336,-0.0361,0,-0.0158,-0.0166,-0.0191,-0.0176,-0.0166,-0.018,-0.0172,-0.0169,-0.0156,-0.0101,-0.0141,-0.0105,-0.0223,-0.0193,-0.0233,-0.0298,-0.0313,-0.0326,-0.0343,-0.0344,-0.0393,-0.0385,-0.0372,-0.0397,-0.0356,-0.0355,-0.0354,0,-0.0166,-0.0159,-0.0145,-0.01,-0.0095,-0.0085,-0.0012,-0.0009,0.0043,0.0063,0.0088,0.0083,0.0053,-0.0025,-0.0129,-0.0132,-0.0211,-0.0277,-0.0279,-0.0337,-0.0404,-0.0397,-0.0389,-0.0346,-0.0347,-0.0347,-0.0348,0,-0.0112,-0.0112,-0.0081,-0.0076,-0.0053,-0.0015,0.0012,0.0063,0.0122,0.0211,0.0297,0.0246,0.0267,0.0151,-0.0027,-0.0056,-0.0132,-0.018,-0.0317,-0.0324,-0.0309,-0.0318,-0.0208,-0.0208,-0.0208,-0.0208,-0.0208,0,-0.0079,-0.0044,-0.0035,-0.0009,0.0075,0.0072,0.0198,0.022,0.0318,0.0416,0.0415,0.0479,0.0318,0.0246,0.0059,-0.0129,-0.0066,-0.0291,-0.0322,-0.0308,-0.0316,-0.026,-0.0266,-0.0209,-0.0209,-0.0209,-0.0208,0,-0.0003,-0.0021,0.0041,0.0084,0.0105,0.0185,0.0304,0.0416,0.0485,0.0625,0.0669,0.0667,0.0549,0.037,0.0182,0.0001,-0.0176,-0.0246,-0.0243,-0.0274,-0.04,-0.0404,-0.0389,-0.0392,-0.0394,-0.0395,-0.0397,0,0.0036,0.0071,0.0128,0.0178,0.021,0.0324,0.042,0.0493,0.0603,0.0712,0.0786,0.0757,0.0663,0.0368,0.0104,-0.0186,-0.0202,-0.0337,-0.0395,-0.0379,-0.0411,-0.0413,-0.0414,-0.0378,-0.0379,-0.038,-0.0381,0,0.0135,0.0153,0.0201,0.0297,0.0395,0.0488,0.0613,0.0699,0.0786,0.0868,0.0872,0.0798,0.0584,0.0282,-0.0035,-0.0229,-0.0302,-0.0369,-0.0305,-0.0349,-0.0375,-0.0405,-0.0405,-0.039,-0.0389,-0.0388,-0.0388,-0.0387,0.0222,0.0272,0.0321,0.0398,0.0507,0.0575,0.0643,0.0757,0.0831,0.09,0.0847,0.0771,0.0526,0.009,-0.0177,-0.0377,-0.0394,-0.0492,-0.0486,-0.0479,-0.0488,-0.0517,-0.0562,-0.0562,-0.0562,-0.0562,-0.0562,0,0.0271,0.0319,0.0412,0.0455,0.0516,0.058,0.0712,0.0769,0.08,0.0897,0.0834,0.0583,0.029,0.0084,-0.024,-0.0504,-0.0495,-0.0561,-0.0488,-0.048,-0.0473,-0.0477,-0.055,-0.055,-0.0551,-0.0551,0,0,0.0303,0.0349,0.0346,0.0387,0.0441,0.0533,0.0579,0.0689,0.079,0.0794,0.0797,0.0697,0.0404,0.0169,-0.016,-0.0326,-0.0339,-0.0366,-0.0359,-0.0229,-0.0217,-0.043,-0.043,0,0,0,0,0]}],[{"header":{"parameterUnit":"m.s-1","parameterCategory":2,"la1":30.2991,"la2":30.254,"lo1":-89.0895,"lo2":-89.0444,"dy":0.0017,"dx":0.0017,"nx":28,"ny":28,"refTime":"2024-05-23T21:00:00:Z","depth":"4","parameterNumber":2,"parameterNumberName":"U-component_of_CURRENTS"},"data":[0,0,0,0,0,0,0,0,0,0,0,0,0,0,0,0,0,0,0,0,0,0,0,0,0,0,0,0,0,0,0,0,0,0,0,0,0,0,0,0,0,0,0,0,0,0,0,0,0,0,0,0,0,0,0,0,0,0,0.0575,0.0576,0,0.0626,0.0627,0.0628,0.0693,0.0694,0.0695,0.0695,0.0779,0.078,0.0782,0,0,0,0,0,0,0,0,0,0,0,0,0,0.0539,0.0539,0.0575,0.0576,0.0576,0.0626,0.0627,0.0628,0.0692,0.0694,0.0695,0.0696,0.0778,0.078,0.0782,0,0,0,0,0,0,0,0,0,0,0,0,0,0.057,0.0539,0.0575,0.0614,0.0618,0.0626,0.0627,0.0628,0.0692,0.0694,0.0695,0.0696,0.0778,0.078,0.0782,0.0766,0,0,0.0788,0.0789,0,0,0,0,0,0,0,0,0.0568,0.0571,0.0608,0.0611,0.0616,0.0653,0.0645,0.0675,0.0692,0.0665,0.0695,0.0697,0.0738,0.0743,0.0751,0.077,0.0773,0.0788,0.0789,0.079,0.0791,0,0,0,0,0,0,0,0.0566,0.0569,0.0597,0.0608,0.0613,0.063,0.0636,0.0651,0.0695,0.0668,0.0672,0.0675,0.0741,0.0749,0.0754,0.0775,0.0788,0.079,0.0791,0.0792,0.0921,0.0924,0,0,0,0,0,0,0.0555,0.0567,0.0595,0.0598,0.0593,0.0629,0.0636,0.0641,0.0694,0.0703,0.0674,0.0678,0.0745,0.0751,0.0757,0.0848,0.079,0.0792,0.0793,0.0919,0.0922,0.0924,0,0,0,0,0,0,0.0554,0.0557,0.0593,0.0583,0.0589,0.0628,0.0633,0.0641,0.0673,0.0698,0.0708,0.07,0.0746,0.0754,0.0806,0.0848,0.0793,0.0795,0.0917,0.092,0.0923,0.0962,0,0,0,0,0,0,0.0553,0.0557,0.0565,0.0582,0.0589,0.0612,0.0632,0.0641,0.067,0.0677,0.0723,0.0731,0.0748,0.0803,0.0808,0.085,0.0796,0.0914,0.0918,0.0922,0.0958,0.0966,0.0974,0,0,0,0,0,0.0551,0.0554,0.0565,0.0569,0.0596,0.0612,0.0617,0.0651,0.067,0.0685,0.073,0.0731,0.0834,0.0806,0.0811,0.0855,0.0912,0.0917,0.0922,0.0955,0.0965,0.0973,0,0,0,0,0,0,0.054,0.0561,0.0574,0.0583,0.0602,0.0623,0.0639,0.0658,0.0702,0.0722,0.0747,0.0758,0.0823,0.0832,0.0801,0.0908,0.0877,0.0884,0.0901,0.091,0.0918,0.091,0.0798,0,0,0,0,0,0.0539,0.0549,0.057,0.0576,0.059,0.0617,0.0631,0.0656,0.069,0.0712,0.075,0.0798,0.0842,0.0871,0.0906,0.0951,0.0956,0.0989,0.0997,0.1003,0.1003,0.1075,0.1089,0.0941,0.0941,0.0941,0,0,0.0534,0.0547,0.0552,0.0575,0.0595,0.0617,0.063,0.066,0.0692,0.0713,0.0781,0.0821,0.0861,0.0925,0.0956,0.0941,0.1042,0.1009,0.1014,0.1011,0.1082,0.1096,0.1109,0.0944,0.0944,0.0943,0,0,0.0523,0.0543,0.0551,0.0572,0.0606,0.0626,0.0638,0.0681,0.072,0.0783,0.0814,0.0877,0.0945,0.0983,0.1009,0.1077,0.1078,0.1101,0.1135,0.1206,0.1218,0.1229,0.1219,0.1229,0.1108,0.1108,0.1108,0,0.0519,0.0534,0.0555,0.0573,0.0597,0.0632,0.0657,0.0692,0.0753,0.0791,0.0818,0.0942,0.0974,0.1045,0.1083,0.1093,0.1113,0.1092,0.1215,0.1226,0.1237,0.1224,0.1234,0.111,0.111,0.111,0.111,0,0.0515,0.0539,0.0547,0.0584,0.0612,0.0638,0.0689,0.0739,0.0799,0.0841,0.0942,0.1,0.1081,0.1104,0.112,0.1213,0.1192,0.1212,0.1185,0.1254,0.1236,0.1246,0.1114,0.1113,0.1112,0.1112,0,0,0.0476,0.0534,0.0539,0.0573,0.0628,0.0654,0.0715,0.0781,0.0838,0.0918,0.0995,0.1091,0.1139,0.1172,0.1205,0.1262,0.1345,0.1279,0.1282,0.1255,0.1459,0.1385,0.1387,0.1403,0.1406,0.1409,0.1401,0,0.0473,0.0511,0.0543,0.0596,0.063,0.069,0.0748,0.0817,0.0892,0.0974,0.1047,0.1138,0.116,0.1223,0.1286,0.1341,0.1381,0.1341,0.1407,0.1407,0.1324,0.1401,0.1418,0.1409,0.1411,0.1413,0.1414,0,0.0461,0.0495,0.0545,0.0633,0.0656,0.0703,0.0815,0.0876,0.098,0.1047,0.1141,0.1193,0.1289,0.1307,0.1425,0.1409,0.1442,0.1464,0.1465,0.1391,0.1355,0.1337,0.1432,0.143,0.1429,0.1428,0.1427,0,0.0431,0.05,0.0547,0.0573,0.0672,0.0732,0.0804,0.0911,0.0982,0.1105,0.1177,0.1272,0.1351,0.1427,0.1498,0.1483,0.1604,0.1584,0.1522,0.1513,0.1559,0.1548,0.166,0.166,0.166,0.166,0.166,0,0.0416,0.0454,0.0551,0.0578,0.067,0.0748,0.0859,0.0942,0.1058,0.1133,0.1235,0.1303,0.1401,0.1476,0.1518,0.1559,0.1633,0.1532,0.153,0.1569,0.156,0.1563,0.1552,0.1659,0.166,0.166,0.166,0,0.0381,0.0431,0.0498,0.0613,0.066,0.0742,0.0896,0.0959,0.1096,0.1197,0.1245,0.1352,0.1448,0.1515,0.1608,0.158,0.1624,0.1615,0.1617,0.1613,0.1457,0.1449,0.1514,0.1511,0.151,0.1508,0.1507,0,0.0366,0.0394,0.0519,0.057,0.0634,0.0761,0.083,0.0971,0.1033,0.1214,0.1242,0.1366,0.1429,0.1491,0.1565,0.161,0.1607,0.1582,0.1542,0.1463,0.1454,0.1448,0.1442,0.1504,0.1503,0.1503,0.1503,0,0.034,0.0388,0.0443,0.0545,0.063,0.0721,0.0838,0.0876,0.1022,0.1144,0.1229,0.129,0.1374,0.1427,0.1485,0.1519,0.1578,0.1562,0.1564,0.1526,0.1452,0.1443,0.1439,0.1496,0.1497,0.1498,0.1498,0,0.0318,0.0351,0.0419,0.0513,0.0597,0.0654,0.0735,0.0817,0.0902,0.1088,0.11,0.1251,0.1342,0.1381,0.1444,0.1473,0.1437,0.1375,0.1386,0.1394,0.1368,0.1257,0.125,0,0,0,0,0,0.03,0.0318,0.0382,0.0467,0.0541,0.0594,0.0709,0.0781,0.0908,0.094,0.1027,0.1111,0.1204,0.1273,0.1279,0.1376,0.1429,0.1374,0.1359,0.1461,0.1468,0.1453,0,0,0,0,0,0,0.0276,0.0323,0.0351,0.0397,0.0439,0.0512,0.0575,0.0669,0.0707,0.0847,0.091,0.1027,0.1138,0.1188,0.125,0.1272,0.1237,0.1467,0.1464,0.1457,0.1464,0.147,0.1456,0,0,0,0,0]},{"header":{"parameterUnit":"m.s-1","parameterCategory":2,"la1":30.2991,"la2":30.254,"lo1":-89.0895,"lo2":-89.0444,"dy":0.0017,"dx":0.0017,"nx":28,"ny":28,"refTime":"2024-05-23T21:00:00:Z","depth":"4","parameterNumber":3,"parameterNumberName":"V-component_of_CURRENTS"},"data":[0,0,0,0,0,0,0,0,0,0,0,0,0,0,0,0,0,0,0,0,0,0,0,0,0,0,0,0,0,0,0,0,0,0,0,0,0,0,0,0,0,0,0,0,0,0,0,0,0,0,0,0,0,0,0,0,0,0,0.0101,0.0101,0,0.0115,0.0115,0.0115,0.0056,0.0054,0.0052,0.0051,0.0018,0.0019,0.0019,0,0,0,0,0,0,0,0,0,0,0,0,0,-0.0001,0.0001,0.0101,0.0101,0.0101,0.0115,0.0115,0.0115,0.0056,0.0054,0.0052,0.005,0.0018,0.0019,0.0019,0,0,0,0,0,0,0,0,0,0,0,0,0,0.0029,0.0002,0.0101,0.0075,0.0073,0.0115,0.0115,0.0115,0.0056,0.0054,0.0051,0.0049,0.0018,0.0019,0.002,0.0073,0,0,0.0022,0.0023,0,0,0,0,0,0,0,0,0.0028,0.0033,0.0078,0.0077,0.0074,0.0083,0.0067,0.0099,0.0057,0.0061,0.0051,0.0048,0.0038,0.0038,0.0044,0.0071,0.007,0.0022,0.0023,0.0023,0.0024,0,0,0,0,0,0,0,0.0026,0.0032,0.0104,0.0079,0.0077,0.0055,0.0056,0.0073,0.006,0.006,0.0056,0.0061,0.0036,0.0043,0.0042,0.0069,0.0022,0.0023,0.0024,0.0024,0.0055,0.0055,0,0,0,0,0,0,0.0032,0.0031,0.0104,0.0105,0.0047,0.0059,0.006,0.0081,0.0061,0.0057,0.0064,0.0059,0.0042,0.0041,0.0041,0.0043,0.0023,0.0024,0.0025,0.0055,0.0055,0.0055,0,0,0,0,0,0,0.003,0.0039,0.0103,0.0068,0.0075,0.0063,0.0086,0.0082,0.0077,0.0065,0.0058,0.0061,0.0041,0.004,0.0053,0.0043,0.0025,0.0026,0.0054,0.0055,0.0055,0.0086,0,0,0,0,0,0,0.0028,0.0039,0.0054,0.0069,0.0077,0.0133,0.0089,0.0085,0.0086,0.0079,0.0061,0.0056,0.0039,0.0052,0.0054,0.0044,0.0026,0.0054,0.0054,0.0055,0.0085,0.0088,0.009,0,0,0,0,0,0.0024,0.0071,0.0056,0.0064,0.01,0.0135,0.0137,0.0118,0.0088,0.0101,0.0083,0.0056,0.0054,0.0054,0.0056,0.0046,0.0054,0.0054,0.0055,0.0084,0.0087,0.009,0,0,0,0,0,0,0.0046,0.007,0.0053,0.0106,0.0115,0.0125,0.0142,0.0124,0.0122,0.0109,0.0081,0.0077,0.0078,0.0069,0.0068,0.0055,0.0042,0.0043,0.0063,0.0066,0.0068,0.0026,0.0027,0,0,0,0,0,0.0057,0.0091,0.0102,0.0143,0.0149,0.0141,0.0151,0.0138,0.014,0.0135,0.012,0.01,0.0088,0.0082,0.0078,0.0092,0.0041,0.0079,0.0082,0.0084,0.005,-0.0044,-0.0054,0.0057,0.0057,0.0057,0,0,0.0079,0.0095,0.0115,0.0148,0.0151,0.0175,0.0141,0.0164,0.0172,0.0135,0.0144,0.012,0.0096,0.0096,0.0094,0.0084,0.0039,0.0085,0.0087,0.005,-0.0045,-0.0056,-0.0066,0.0058,0.0057,0.0057,0,0,0.0138,0.0151,0.0188,0.0199,0.0209,0.0207,0.0213,0.0219,0.0206,0.022,0.0179,0.0146,0.0154,0.0114,0.0098,0.0117,0.0059,0.0117,0.0093,0.0004,-0.0008,-0.0018,-0.0043,-0.0057,0.0114,0.0114,0.0114,0,0.0154,0.0198,0.0205,0.0235,0.0238,0.0222,0.0244,0.0251,0.0255,0.0224,0.0225,0.0152,0.0152,0.0096,0.01,0.0119,0.0072,0.0086,0.0003,-0.0008,-0.002,-0.0044,-0.0059,0.0115,0.0115,0.0115,0.0115,0,0.0228,0.0254,0.0281,0.0301,0.0312,0.0336,0.0333,0.0327,0.03,0.0273,0.0213,0.019,0.0115,0.0129,0.0126,0.004,0.0039,0.0021,-0.0009,-0.003,-0.0052,-0.0069,0.0118,0.0117,0.0117,0.0116,0,0,0.0274,0.0319,0.0323,0.0313,0.0338,0.0343,0.0359,0.0332,0.0285,0.0272,0.019,0.0172,0.0097,0.0071,0.0043,-0.0016,-0.0092,-0.0033,-0.0038,-0.0066,-0.0261,-0.0214,-0.0227,-0.014,-0.0144,-0.0147,-0.0225,0,0.0311,0.0361,0.0377,0.0397,0.0406,0.0384,0.0382,0.0351,0.0308,0.0236,0.0164,0.0093,0.0095,0.0034,-0.003,-0.0083,-0.0144,-0.0067,-0.0232,-0.0236,-0.0201,-0.0249,-0.0159,-0.0237,-0.0241,-0.0244,-0.0246,0,0.0357,0.0375,0.0406,0.0385,0.0384,0.0392,0.0318,0.0313,0.0222,0.0172,0.0064,0.0004,-0.0091,-0.0091,-0.023,-0.0188,-0.0239,-0.0267,-0.0272,-0.0267,-0.0223,-0.0227,-0.0276,-0.0274,-0.0272,-0.027,-0.0268,0,0.0338,0.0379,0.0388,0.0393,0.0387,0.0365,0.0344,0.0275,0.0229,0.0105,0.0034,-0.0091,-0.017,-0.0267,-0.0314,-0.0299,-0.0454,-0.044,-0.0444,-0.0438,-0.047,-0.0459,-0.0574,-0.0574,-0.0574,-0.0573,-0.0573,0,0.0348,0.0347,0.0374,0.0371,0.0331,0.0337,0.0263,0.0215,0.0135,0.0073,-0.0026,-0.0101,-0.023,-0.0316,-0.036,-0.0445,-0.0503,-0.0475,-0.0482,-0.0442,-0.0427,-0.0478,-0.0466,-0.0576,-0.0576,-0.0575,-0.0575,0,0.0306,0.0343,0.033,0.0328,0.0319,0.0276,0.0223,0.0166,0.0101,0.0014,-0.0029,-0.0143,-0.0243,-0.0338,-0.0472,-0.0497,-0.0575,-0.0593,-0.0512,-0.0507,-0.0481,-0.0466,-0.0621,-0.062,-0.062,-0.062,-0.0619,0,0.0272,0.0276,0.0276,0.0251,0.0244,0.0197,0.0161,0.0128,0.0098,0.0015,-0.0017,-0.0142,-0.0213,-0.0355,-0.0458,-0.057,-0.0576,-0.0616,-0.0587,-0.0509,-0.0499,-0.0485,-0.0471,-0.0619,-0.0619,-0.0619,-0.0618,0,0.0177,0.0193,0.0176,0.017,0.0142,0.012,0.0098,0.0089,0.0075,0.0008,-0.001,-0.0094,-0.021,-0.032,-0.0426,-0.0496,-0.0592,-0.0613,-0.0614,-0.0587,-0.0508,-0.0496,-0.0482,-0.0617,-0.0617,-0.0617,-0.0618,0,0.0068,0.0052,0.0071,0.0077,0.006,0.0099,0.0074,0.0088,0.0077,0.0048,0.0049,-0.0068,-0.0147,-0.0282,-0.0362,-0.045,-0.0464,-0.0473,-0.0482,-0.0485,-0.0418,-0.0296,-0.0375,0,0,0,0,0,-0.0028,-0.0001,-0.0021,0.0029,0.0042,0.0077,0.0069,0.0067,0.0088,0.0089,0.0086,0.0004,-0.013,-0.0207,-0.0285,-0.0372,-0.0498,-0.0467,-0.0516,-0.061,-0.0612,-0.0553,0,0,0,0,0,0,-0.0104,-0.011,-0.0029,0.0041,0.0087,0.0127,0.0145,0.0144,0.0161,0.0148,0.0074,0.002,-0.0126,-0.0063,-0.0267,-0.0302,-0.0337,-0.0546,-0.0547,-0.0609,-0.0611,-0.0612,-0.0553,0,0,0,0,0]}]]